Weather History for Lamar, CO

Change the Weather History Date:

Saturday, December 31, 2011

  Actual Average Record
Temperature  
Mean Temperature 33 °F 28 °F  
Max Temperature 46 °F 43 °F 68 °F (1996)
Min Temperature 19 °F 12 °F -16 °F (1990)
Degree Days  
Heating Degree Days 32 37  
Month to date heating degree days 1213 1097  
Since 1 July heating degree days 2318 2313  
Cooling Degree Days 0 0  
Month to date cooling degree days 0 0  
Year to date cooling degree days 1533 1121  
Moisture  
Dew Point 25 °F    
Average Humidity 59    
Maximum Humidity 78    
Minimum Humidity 40    
Precipitation  
Precipitation 0.00 in 0.01 in 0.10 in (1924)
Month to date precipitation 0.02 0.40  
Year to date precipitation 15.20  
Sea Level Pressure  
Sea Level Pressure 29.94 in    
Wind  
Wind Speed 12 mph (WNW)    
Max Wind Speed 44 mph    
Max Gust Speed 55 mph    
Visibility 10 miles    
Events      
T = Trace of Precipitation, MM = Missing Value Source: NWS Daily Summary

Daily Weather History Graph

Daily Weather History Graph

Search for Another Location

Airport:

Trip Planner

Search our weather history database for the weather conditions in past years. The results will help you decide how hot, cold, wet, or windy it might be!

Date:

Astronomy

Dec. 31, 2011 Rise Set
Actual Time 7:06 AM MST 4:40 PM MST
Civil Twilight 6:37 AM MST 5:10 PM MST
Nautical Twilight 6:04 AM MST 5:43 PM MST
Astronomical Twilight 5:32 AM MST 6:15 PM MST
Moon 11:00 AM MST (12/31) No Moon Set
Length of Visible Light 10h 32m
Length of Day
9h 33m
Waxing Crescent, 45% of the Moon is Illuminated
Dec 31
Waxing Crescent
Dec 31
First Quarter
Jan 9
Full
Jan 16
Last Quarter
Jan 23
New

Hourly Weather History & Observations

Time (MST) Temp. Windchill Dew Point Humidity Pressure Visibility Wind Dir Wind Speed Gust Speed Precip Events Conditions
12:53 AM 39.0 °F 33.4 °F 28.9 °F 67% 29.73 in 10.0 mi SW 8.1 mph - N/A   Clear
1:53 AM 35.1 °F 26.9 °F 28.9 °F 78% 29.73 in 10.0 mi SW 11.5 mph - N/A   Clear
3:53 AM 34.0 °F 27.2 °F 27.0 °F 75% 29.71 in 10.0 mi SSW 8.1 mph - N/A   Clear
5:53 AM 35.1 °F 26.4 °F 26.1 °F 70% 29.67 in 10.0 mi WNW 12.7 mph - N/A   Clear
7:36 AM 39.2 °F 31.2 °F 26.6 °F 61% 29.64 in 10.0 mi West 13.8 mph - N/A   Clear
7:53 AM 39.0 °F 32.3 °F 26.1 °F 60% 29.67 in 10.0 mi WSW 10.4 mph - N/A   Clear
8:53 AM 35.1 °F 28.6 °F 28.0 °F 76% 29.70 in 10.0 mi WSW 8.1 mph - N/A   Clear
9:53 AM 41.0 °F 33.9 °F 30.0 °F 65% 29.68 in 10.0 mi WSW 12.7 mph - N/A   Clear
10:35 AM 44.6 °F 37.8 °F 28.4 °F 53% 29.75 in 10.0 mi NW 15.0 mph - N/A   Clear
10:53 AM 46.0 °F 43.9 °F 30.0 °F 54% 29.76 in 10.0 mi Variable 4.6 mph - N/A   Clear
11:53 AM 44.1 °F 37.4 °F 26.1 °F 49% 29.78 in 10.0 mi NW 13.8 mph 25.3 mph N/A   Clear
12:53 PM 42.1 °F 33.1 °F 25.0 °F 51% 29.82 in 10.0 mi WNW 20.7 mph 31.1 mph N/A   Clear
1:53 PM 45.0 °F 33.8 °F 21.0 °F 39% 29.89 in 10.0 mi NW 40.3 mph 55.2 mph N/A   Partly Cloudy
2:53 PM 42.1 °F 31.5 °F 24.1 °F 49% 30.00 in 10.0 mi NW 28.8 mph 39.1 mph N/A   Clear
3:15 PM 41.0 °F 28.5 °F 24.8 °F 53% 30.03 in 5.0 mi NNW 39.1 mph 48.3 mph N/A   Haze
3:22 PM 41.0 °F 29.5 °F 24.8 °F 53% 30.05 in 9.0 mi NNW 32.2 mph 46.0 mph N/A   Scattered Clouds
3:35 PM 39.2 °F 27.4 °F 26.6 °F 61% 30.07 in 7.0 mi NNW 29.9 mph 39.1 mph N/A   Mostly Cloudy
4:12 PM 39.2 °F - 24.8 °F 56% 30.11 in - North - - N/A   Unknown
4:53 PM 37.0 °F 26.7 °F 26.1 °F 65% 30.15 in 10.0 mi North 19.6 mph - N/A   Unknown
5:53 PM - - - N/A% 30.19 in - North - - N/A   Unknown
6:53 PM 28.9 °F 23.9 °F 23.0 °F 78% 30.30 in 10.0 mi SSW 4.6 mph - N/A   Clear
7:53 PM 33.1 °F 28.7 °F 21.9 °F 64% 30.32 in 10.0 mi North 4.6 mph - N/A   Clear
10:53 PM 24.1 °F 16.0 °F 17.1 °F 75% 30.39 in 10.0 mi North 6.9 mph - N/A   Clear
11:53 PM 25.0 °F - 17.1 °F 72% 30.40 in 10.0 mi Calm Calm - N/A   Clear